G1CAE-13 Weather Reports


time (UTC)temp
C
wind
direction
speed
KPH
gust
KPH
rain 1hr
cm
rain 24hr
cm
rain mn
cm
humidity
%
barometer
mb
20260506155403 12 243 1.6 9.7 0.00 0.00 0.00 57 1014.3
20260506154503 13 205 1.6 9.7 0.00 0.00 0.00 57 1014.8
20260506153603 12 232 1.6 6.4 0.00 0.00 0.00 57 1014.6
20260506152703 12 231 1.6 6.4 0.00 0.00 0.00 57 1014.5
20260506151803 12 233 1.6 6.4 0.00 0.00 0.00 58 1014.8
20260506150903 12 221 1.6 6.4 0.00 0.00 0.00 58 1014.7
20260506150003 12 250 1.6 9.7 0.00 0.00 0.00 59 1014.8
20260506145403 12 257 1.6 9.7 0.00 0.00 0.00 58 1014.9
20260506144503 13 255 1.6 9.7 0.00 0.00 0.00 57 1015.1
20260506143818 13 247 1.6 9.7 0.00 0.00 0.00 57 1014.9
20260506142703 12 255 3.2 9.7 0.00 0.00 0.00 60 1015.0
20260506141803 12 212 1.6 6.4 0.00 0.00 0.00 57 1014.9
20260506140903 13 222 1.6 6.4 0.00 0.00 0.00 56 1014.8
20260506140004 13 276 3.2 6.4 0.00 0.00 0.00 56 1014.9
20260506135618 12 285 3.2 6.4 0.00 0.00 0.00 57 1014.7
20260506134718 13 299 3.2 11.3 0.00 0.00 0.00 54 1014.8
20260506133603 13 281 3.2 6.4 0.00 0.00 0.00 52 1015.0
20260506132703 13 279 1.6 4.8 0.00 0.00 0.00 54 1014.9
20260506131803 13 262 1.6 6.4 0.00 0.00 0.00 52 1014.9
20260506130903 13 300 1.6 4.8 0.00 0.00 0.00 53 1014.9
20260506130004 12 288 1.6 6.4 0.00 0.00 0.00 54 1015.0
20260506125403 12 296 1.6 6.4 0.00 0.00 0.00 55 1015.0
20260506124503 12 284 1.6 6.4 0.00 0.00 0.00 56 1014.9
20260506123817 13 280 1.6 6.4 0.00 0.00 0.00 55 1015.1
20260506122703 13 303 1.6 4.8 0.00 0.00 0.00 57 1014.8
20260506121803 13 286 1.6 4.8 0.00 0.00 0.00 52 1014.8
20260506120903 13 264 1.6 4.8 0.00 0.00 0.00 53 1015.0
20260506120218 12 326 0.0 3.2 0.00 0.00 0.00 50 1015.0
20260506115618 12 15 1.6 4.8 0.00 0.00 0.00 57 1015.3
20260506114503 11 77 1.6 6.4 0.00 0.00 0.00 49 1014.7
20260506113603 12 81 1.6 6.4 0.00 0.00 0.00 51 1015.1
20260506112703 12 80 1.6 4.8 0.00 0.00 0.00 51 1015.3
20260506111803 12 82 1.6 6.4 0.00 0.00 0.00 49 1015.5
20260506110903 11 61 1.6 4.8 0.00 0.00 0.00 50 1015.5
20260506110004 12 76 1.6 6.4 0.00 0.00 0.00 49 1015.6
20260506105403 12 72 1.6 6.4 0.00 0.00 0.00 47 1015.5
20260506104503 12 77 3.2 9.7 0.00 0.00 0.00 50 1015.6
20260506103603 11 72 1.6 4.8 0.00 0.00 0.00 49 1015.7
20260506102703 11 74 1.6 4.8 0.00 0.00 0.00 49 1015.6
20260506101803 11 81 1.6 6.4 0.00 0.00 0.00 53 1015.8
20260506100903 11 75 1.6 9.7 0.00 0.00 0.00 53 1015.8
20260506100004 10 69 3.2 9.7 0.00 0.00 0.00 54 1015.9
20260506095403 11 79 3.2 11.3 0.00 0.00 0.00 53 1015.8
20260506094503 11 80 3.2 9.7 0.00 0.00 0.00 52 1016.0
20260506093603 11 71 3.2 11.3 0.00 0.00 0.00 53 1016.1
20260506092703 10 69 3.2 9.7 0.00 0.00 0.00 53 1016.1
20260506091803 10 79 3.2 9.7 0.00 0.00 0.00 55 1016.2
20260506091118 10 75 3.2 9.7 0.00 0.00 0.00 52 1016.3
20260506090217 10 80 3.2 9.7 0.00 0.00 0.00 54 1016.0
20260506085403 10 77 3.2 6.4 0.00 0.00 0.00 55 1016.0
20260506084503 9 76 1.6 6.4 0.00 0.00 0.00 56 1016.2
20260506083603 9 84 1.6 6.4 0.00 0.00 0.00 59 1016.3
20260506082703 8 74 1.6 6.4 0.00 0.00 0.00 59 1016.5
20260506081803 8 72 3.2 12.9 0.00 0.00 0.00 62 1016.1
20260506080903 8 71 1.6 9.7 0.00 0.00 0.00 61 1016.1
20260506072704 6 80 3.2 9.7 0.00 0.00 0.00 66 1016.1
20260506071804 6 79 1.6 9.7 0.00 0.00 0.00 67 1016.2
20260506071117 6 84 1.6 6.4 0.00 0.00 0.00 67 1016.1
20260506061803 5 79 3.2 6.4 0.00 0.00 0.00 69 1015.8
20260506060903 5 77 1.6 6.4 0.00 0.00 0.00 70 1015.6
20260506050903 5 79 1.6 6.4 0.00 0.00 0.00 74 1015.7
20260506050217 5 78 1.6 6.4 0.00 0.00 0.00 74 1015.8
20260506044503 5 77 3.2 9.7 0.00 0.00 0.00 75 1015.8
20260506043818 5 81 1.6 4.8 0.00 0.00 0.00 75 1015.7
20260506042703 4 75 1.6 6.4 0.00 0.00 0.00 76 1015.8
20260506042018 4 76 1.6 6.4 0.00 0.00 0.00 76 1015.7
20260506040903 5 75 1.6 4.8 0.00 0.00 0.00 76 1015.9
20260506040003 5 76 1.6 6.4 0.00 0.00 0.00 76 1016.0
20260506035403 5 76 1.6 6.4 0.00 0.00 0.00 76 1015.7
20260506034503 5 73 1.6 3.2 0.00 0.00 0.00 76 1016.0
20260506033603 5 71 1.6 4.8 0.00 0.00 0.00 76 1016.0
20260506032917 5 72 1.6 4.8 0.00 0.00 0.00 76 1016.1
20260506031803 5 76 1.6 4.8 0.00 0.00 0.00 76 1016.2
20260506030903 5 78 1.6 4.8 0.00 0.00 0.00 77 1016.0
20260506030217 5 76 3.2 9.7 0.00 0.00 0.00 76 1015.8
20260506025403 5 74 3.2 9.7 0.00 0.00 0.00 76 1016.2
20260506024503 5 77 3.2 9.7 0.00 0.00 0.00 76 1015.9
20260506023603 5 76 1.6 4.8 0.00 0.00 0.00 77 1015.9
20260506022703 5 75 1.6 6.4 0.00 0.00 0.00 77 1015.9
20260506021803 5 75 3.2 6.4 0.00 0.00 0.00 77 1015.7
20260506020903 5 70 3.2 9.7 0.00 0.00 0.00 77 1015.9
20260506020218 5 72 3.2 6.4 0.00 0.00 0.00 77 1016.0
20260506015403 5 74 1.6 4.8 0.00 0.00 0.00 79 1016.1
20260506014503 5 70 1.6 3.2 0.00 0.00 0.00 78 1016.1
20260506013816 5 73 1.6 4.8 0.00 0.00 0.00 78 1016.0
20260506012703 5 73 1.6 4.8 0.00 0.00 0.00 78 1016.1
20260506012017 5 75 1.6 4.8 0.00 0.00 0.00 77 1016.3
20260506010903 5 80 1.6 6.4 0.00 0.00 0.00 77 1016.2
20260506010004 5 75 1.6 4.8 0.00 0.00 0.00 77 1016.2
20260506005403 5 75 1.6 6.4 0.00 0.00 0.00 77 1016.2
20260506004717 5 77 1.6 6.4 0.00 0.00 0.00 77 1016.2
20260506003603 5 76 1.6 6.4 0.00 0.00 0.00 77 1016.0
20260506002703 5 77 1.6 6.4 0.00 0.00 0.00 76 1016.1
20260506001803 5 80 3.2 9.7 0.00 0.00 0.00 76 1016.2
20260506000903 5 84 3.2 9.7 0.00 0.00 0.00 76 1016.1
20260506000003 5 78 3.2 9.7 0.00 0.00 0.00 76 1016.0
20260505235403 5 76 3.2 9.7 0.00 0.00 0.00 76 1016.3
20260505234503 5 79 1.6 6.4 0.00 0.00 0.00 76 1016.3
20260505233603 5 81 3.2 9.7 0.00 0.00 0.00 76 1016.3
20260505232703 6 81 3.2 9.7 0.00 0.00 0.00 76 1016.2
20260505231803 6 78 3.2 9.7 0.00 0.00 0.00 76 1016.4
20260505230903 6 75 3.2 12.9 0.00 0.00 0.00 76 1016.2
20260505230004 6 73 1.6 9.7 0.00 0.00 0.00 75 1016.3
20260505225403 6 81 3.2 9.7 0.00 0.00 0.00 75 1016.4
20260505224503 6 73 3.2 12.9 0.00 0.00 0.00 75 1016.2
20260505223603 6 83 3.2 11.3 0.00 0.00 0.00 75 1016.3
20260505222917 6 90 3.2 9.7 0.00 0.00 0.00 74 1016.2
20260505221803 7 76 3.2 12.9 0.00 0.00 0.00 73 1016.3
20260505221117 7 75 3.2 12.9 0.00 0.00 0.00 73 1016.6
20260505220003 7 78 3.2 9.7 0.00 0.00 0.00 73 1016.3
20260505215403 7 85 3.2 9.7 0.00 0.00 0.00 72 1016.2
20260505214503 7 83 3.2 9.7 0.00 0.00 0.00 72 1016.3
20260505213603 7 83 3.2 9.7 0.00 0.00 0.00 72 1015.9
20260505212703 7 84 3.2 11.3 0.00 0.00 0.00 72 1015.9
20260505211803 7 82 3.2 11.3 0.00 0.00 0.00 72 1015.8
20260505211117 7 83 3.2 9.7 0.00 0.00 0.00 72 1016.1
20260505210003 7 76 3.2 11.3 0.00 0.00 0.00 72 1016.2
20260505205403 7 76 3.2 12.9 0.00 0.00 0.00 72 1016.0
20260505204503 7 76 3.2 12.9 0.00 0.00 0.00 71 1015.8
20260505203817 7 80 3.2 12.9 0.00 0.00 0.00 71 1015.8
20260505202703 7 80 3.2 11.3 0.00 0.00 0.00 71 1016.0
20260505201803 8 76 3.2 9.7 0.00 0.00 0.00 70 1016.0
20260505200903 8 80 3.2 9.7 0.00 0.00 0.00 70 1016.0
20260505200003 8 78 3.2 6.4 0.00 0.00 0.00 70 1015.9
20260505195403 8 75 3.2 6.4 0.00 0.00 0.00 70 1015.8
20260505194503 8 79 3.2 9.7 0.00 0.00 0.00 70 1015.8
20260505193603 8 87 3.2 9.7 0.00 0.00 0.00 70 1015.8
20260505192703 8 82 3.2 11.3 0.00 0.00 0.00 70 1015.4
20260505191803 8 80 3.2 11.3 0.00 0.00 0.00 70 1015.5
20260505190903 8 81 3.2 12.9 0.00 0.00 0.00 69 1015.4
20260505190004 8 88 3.2 12.9 0.00 0.00 0.00 68 1015.3
20260505185403 8 84 3.2 12.9 0.00 0.00 0.00 69 1015.1
20260505184503 8 80 4.8 16.1 0.00 0.00 0.00 68 1015.1
20260505183603 9 83 4.8 12.9 0.00 0.00 0.00 67 1015.2
20260505182703 9 82 4.8 16.1 0.00 0.00 0.00 68 1015.6
20260505181803 9 84 4.8 12.9 0.00 0.00 0.00 68 1015.3
20260505180903 9 87 4.8 17.7 0.00 0.00 0.00 68 1015.4
20260505180003 9 83 4.8 14.5 0.00 0.00 0.00 68 1015.4
20260505175617 10 77 4.8 14.5 0.00 0.00 0.00 68 1015.2
20260505174503 10 84 6.4 16.1 0.00 0.00 0.00 68 1015.4
20260505173603 10 79 4.8 16.1 0.00 0.00 0.00 69 1015.5
20260505172703 10 85 4.8 20.9 0.00 0.00 0.00 68 1015.4
20260505171803 10 89 4.8 12.9 0.00 0.00 0.00 67 1015.2
20260505170903 10 80 6.4 16.1 0.00 0.00 0.00 68 1015.1
20260505170217 11 72 6.4 16.1 0.00 0.00 0.00 69 1015.3
20260505165403 11 90 4.8 17.7 0.00 0.00 0.00 68 1015.2
20260505164503 11 89 6.4 20.9 0.00 0.00 0.00 67 1015.1
20260505163603 12 78 6.4 20.9 0.00 0.00 0.00 66 1015.1
20260505162703 12 85 6.4 20.9 0.00 0.00 0.00 67 1015.1
20260505162018 12 85 6.4 20.9 0.00 0.00 0.00 66 1015.3
20260505160903 10 76 6.4 17.7 0.00 0.00 0.00 70 1014.9